Weather in Uloma

Russia / Novgorod Oblast     58°27′21″N   35°22′39″E
temp.,
°C
wind,
m/s
gust,
m/s
humid.,
%
clouds,
%
prec.,
mm/h
press.,
hPa
HPBL,
m
3 march, wed
wed300:00−5nw4118833 0.0 1014417
03:00−6wnw4119117 0.0 1015351
06:00−3wnw5119242 0.0 1014752
09:00−2wnw5119072 0.2 10141043
12:00−1wnw61085100 0.1 1012948
15:000w61085100 0.1 1010875
18:00−1w51191100 0.1 1007998
21:00−1w51293100 0.4 10041049
4 march, thu
thu400:000w51295100 0.5 10011039
03:00−2wnw41189100 0.6 1000870
06:00−6wnw413886 0.0 1000551
09:00−6nw4109236 0.0 1001473
12:00−4nw368595 0.0 1001656
15:00−3nw358298 0.1 1002864
18:00−5nnw239195 0.1 100185
21:00−8nnw229595 0.1 100325
5 march, fri
fri500:00−8nne129794 0.1 100424
03:00−9n019794 0.1 100521
06:00−9nw1197100 0.5 100622
09:00−8wnw249498 0.7 1007271
12:00−6nw358892 0.1 1008649
15:00−5nw467895 0.6 1009982
18:00−8nw269193 0.1 1011269
21:00−11nnw259476 0.1 1014109
6 march, sat
sat600:00−14n12928 0.0 101520
03:00−15w22914 0.0 101620
06:00−14w23940 0.0 101669
09:00−11w379210 0.0 1015331
12:00−7w368491 0.0 1015692
15:00−6wsw467996 0.1 1012908
18:00−7sw41084100 0.0 1009628
21:00−7sw61390100 0.1 10041055
7 march, sun
sun700:00−6sw71492100 0.8 9991194
03:00−5sw71493100 1.9 9931088
06:00−3sw61494100 1.1 9871003
09:00−2sw71594100 3.6 9831360
12:00−7w61277100 0.9 9841650
15:00−8wsw6138089 1.0 9841513
18:00−7w61292100 0.8 9841239
21:00−8nw5994100 2.5 984856